FW0475 Weather Reports


Display with metric or nautical units.
time (UTC)temp
F
wind
direction
speed
MPH
gust
MPH
rain 1hr
in
rain 24hr
in
rain mn
in
humidity
%
barometer
mb
20260508030826 43 53 1.0 2.0 0.00 0.00 0.00 58 1012.4
20260508030338 43 37 1.0 2.0 0.00 0.00 0.00 57 1012.3
20260508025844 43 5 1.0 2.0 0.00 0.00 0.00 56 1012.4
20260508025315 43 5 1.0 2.0 0.00 0.00 0.00 56 1012.4
20260508024832 43 360 2.0 2.0 0.00 0.00 0.00 55 1012.4
20260508024329 44 360 1.0 2.0 0.00 0.00 0.00 55 1012.4
20260508023838 44 355 1.0 2.0 0.00 0.00 0.00 55 1012.4
20260508023349 44 355 1.0 2.0 0.00 0.00 0.00 55 1012.4
20260508022820 44 355 1.0 2.0 0.00 0.00 0.00 56 1012.4
20260508022334 44 355 2.0 2.0 0.00 0.00 0.00 56 1012.3
20260508021828 44 342 1.0 2.0 0.00 0.00 0.00 56 1012.4
20260508021317 44 335 1.0 2.0 0.00 0.00 0.00 56 1012.3
20260508020827 44 335 0.0 1.0 0.00 0.00 0.00 57 1012.3
20260508020332 44 335 0.0 2.0 0.00 0.00 0.00 56 1012.2
20260508015829 44 335 1.0 2.0 0.00 0.00 0.00 56 1012.1
20260508015344 44 335 1.0 2.0 0.00 0.00 0.00 58 1012.1
20260508014833 44 335 1.0 2.0 0.00 0.00 0.00 59 1012.0
20260508014330 45 335 1.0 2.0 0.00 0.00 0.00 58 1011.8
20260508013842 45 335 1.0 2.0 0.00 0.00 0.00 59 1011.7
20260508013339 45 309 1.0 2.0 0.00 0.00 0.00 59 1011.6
20260508012822 46 304 1.0 1.0 0.00 0.00 0.00 59 1011.5
20260508012317 46 302 1.0 1.0 0.00 0.00 0.00 58 1011.6
20260508011834 47 286 1.0 1.0 0.00 0.00 0.00 57 1011.5
20260508011328 47 286 1.0 1.0 0.00 0.00 0.00 56 1011.5
20260508010831 48 286 0.0 0.0 0.00 0.00 0.00 55 1011.6
20260508010327 48 286 0.0 1.0 0.00 0.00 0.00 55 1011.6
20260508005835 48 286 0.0 1.0 0.00 0.00 0.00 54 1011.4
20260508005328 48 286 0.0 1.0 0.00 0.00 0.00 54 1011.4
20260508004817 49 286 0.0 0.0 0.00 0.00 0.00 55 1011.4
20260508004333 49 286 0.0 0.0 0.00 0.00 0.00 54 1011.4
20260508003826 49 286 0.0 0.0 0.00 0.00 0.00 54 1011.3
20260508003323 49 286 0.0 1.0 0.00 0.00 0.00 53 1011.4
20260508002837 49 286 0.0 1.0 0.00 0.00 0.00 53 1011.3
20260508002332 49 286 0.0 2.0 0.00 0.00 0.00 53 1011.3
20260508001827 49 286 1.0 2.0 0.00 0.00 0.00 53 1011.3
20260508001343 49 286 1.0 1.0 0.00 0.00 0.00 52 1011.3
20260508000833 49 286 0.0 2.0 0.00 0.00 0.00 53 1011.3
20260508000322 49 286 1.0 2.0 0.00 0.00 0.00 53 1011.3
20260507235817 48 286 1.0 2.0 0.00 0.00 0.00 53 1011.4
20260507235333 48 284 1.0 3.0 0.00 0.00 0.00 52 1011.4
20260507234846 48 287 1.0 3.0 0.00 0.00 0.00 51 1011.5
20260507234320 48 279 2.0 3.0 0.00 0.00 0.00 51 1011.6
20260507233836 48 269 2.0 3.0 0.00 0.00 0.00 51 1011.6
20260507233327 48 265 1.0 2.0 0.00 0.00 0.00 52 1011.7
20260507232833 48 278 2.0 3.0 0.00 0.00 0.00 51 1011.8
20260507232346 48 269 2.0 3.0 0.00 0.00 0.00 49 1011.9
20260507231829 49 277 2.0 3.0 0.00 0.00 0.00 47 1011.9
20260507231323 49 292 2.0 3.0 0.00 0.00 0.00 48 1012.0
20260507230817 49 261 2.0 3.0 0.00 0.00 0.00 46 1012.0
20260507230333 49 263 2.0 3.0 0.00 0.00 0.00 46 1012.0
20260507225841 49 273 2.0 3.0 0.00 0.00 0.00 47 1012.0
20260507225349 48 244 1.0 2.0 0.00 0.00 0.00 48 1012.1
20260507224821 48 246 1.0 3.0 0.00 0.00 0.00 46 1012.1
20260507224338 48 281 2.0 3.0 0.00 0.00 0.00 47 1012.1
20260507223832 48 219 2.0 4.0 0.00 0.00 0.00 44 1012.2
20260507223341 47 236 1.0 5.0 0.00 0.00 0.00 47 1012.3
20260507222845 46 217 2.0 5.0 0.00 0.00 0.00 47 1012.4
20260507222316 46 220 2.0 5.0 0.00 0.00 0.00 49 1012.5
20260507221855 46 194 2.0 6.0 0.00 0.00 0.00 52 1012.5
20260507221350 46 206 4.0 7.0 0.00 0.00 0.00 49 1012.7
20260507220845 47 231 3.0 7.0 0.00 0.00 0.00 49 1012.6
20260507220319 47 215 5.0 7.0 0.00 0.00 0.00 48 1012.7
20260507215835 47 227 4.0 8.0 0.00 0.00 0.00 50 1012.8
20260507215329 47 223 4.0 6.0 0.00 0.00 0.00 48 1012.6
20260507214817 47 214 4.0 6.0 0.00 0.00 0.00 47 1012.6
20260507214359 48 220 4.0 5.0 0.00 0.00 0.00 46 1012.6
20260507213827 48 226 3.0 5.0 0.00 0.00 0.00 46 1012.5
20260507213322 48 211 3.0 6.0 0.00 0.00 0.00 47 1012.5
20260507212837 47 216 4.0 6.0 0.00 0.00 0.00 46 1012.6
20260507212325 48 212 4.0 6.0 0.00 0.00 0.00 46 1012.5
20260507211832 49 208 3.0 6.0 0.00 0.00 0.00 46 1012.4
20260507211329 48 241 3.0 6.0 0.00 0.00 0.00 49 1012.3
20260507210820 48 230 3.0 8.0 0.00 0.00 0.00 48 1012.6
20260507210355 47 273 4.0 8.0 0.00 0.00 0.00 50 1012.8
20260507205840 46 197 4.0 9.0 0.00 0.00 0.00 50 1012.9
20260507205330 46 210 4.0 9.0 0.00 0.00 0.00 48 1013.0
20260507204844 47 217 5.0 8.0 0.00 0.00 0.00 48 1013.1
20260507204330 47 223 3.0 9.0 0.00 0.00 0.00 47 1012.9
20260507203818 48 232 4.0 9.0 0.00 0.00 0.00 46 1012.9
20260507203333 48 261 5.0 8.0 0.00 0.00 0.00 47 1013.0
20260507202830 47 213 4.0 10.0 0.00 0.00 0.00 49 1013.0
20260507202339 47 211 5.0 10.0 0.00 0.00 0.00 47 1013.2
20260507201844 47 216 4.0 8.0 0.00 0.00 0.00 47 1013.2
20260507201341 47 259 4.0 10.0 0.00 0.00 0.00 49 1013.3
20260507200828 47 199 6.0 10.0 0.00 0.00 0.00 46 1013.4
20260507200323 47 221 4.0 9.0 0.00 0.00 0.00 48 1013.4
20260507195833 48 209 5.0 9.0 0.00 0.00 0.00 48 1013.5
20260507195347 47 255 5.0 10.0 0.00 0.00 0.00 47 1013.4
20260507194821 47 233 4.0 8.0 0.00 0.00 0.00 46 1013.5
20260507194319 46 215 4.0 8.0 0.00 0.00 0.00 48 1013.6
20260507193814 46 250 4.0 9.0 0.00 0.00 0.00 51 1013.7
20260507193352 46 236 6.0 9.0 0.00 0.00 0.00 52 1013.8
20260507192824 45 232 5.0 9.0 0.00 0.00 0.00 54 1014.0
20260507192317 45 213 5.0 9.0 0.00 0.00 0.00 56 1014.1
20260507191836 45 214 6.0 9.0 0.00 0.00 0.00 55 1014.1
20260507191329 45 183 6.0 10.0 0.00 0.00 0.00 56 1014.1
20260507190842 46 224 5.0 10.0 0.00 0.00 0.00 58 1014.0
20260507190326 45 216 6.0 10.0 0.00 0.00 0.00 58 1014.2
20260507185821 45 194 6.0 10.0 0.00 0.00 0.00 58 1014.1
20260507185333 45 222 7.0 10.0 0.00 0.00 0.00 56 1014.1
20260507184825 45 219 6.0 11.0 0.00 0.00 0.00 54 1014.1
20260507184340 46 240 5.0 8.0 0.00 0.00 0.00 56 1014.1
20260507183852 45 226 5.0 8.0 0.00 0.00 0.00 50 1014.1
20260507183328 46 215 4.0 8.0 0.00 0.00 0.00 51 1014.1
20260507182824 46 232 4.0 8.0 0.00 0.00 0.00 51 1014.0
20260507182316 45 225 5.0 7.0 0.00 0.00 0.00 49 1014.0
20260507181830 45 205 3.0 6.0 0.00 0.00 0.00 50 1013.9
20260507181321 45 202 3.0 5.0 0.00 0.00 0.00 50 1014.0
20260507180856 45 234 3.0 5.0 0.00 0.00 0.00 51 1014.0
20260507180330 46 221 2.0 5.0 0.00 0.00 0.00 50 1014.0
20260507175825 46 198 3.0 6.0 0.00 0.00 0.00 50 1014.0
20260507175320 46 222 3.0 5.0 0.00 0.00 0.00 50 1014.1
20260507174837 47 257 3.0 5.0 0.00 0.00 0.00 52 1014.0
20260507174335 46 255 2.0 6.0 0.00 0.00 0.00 51 1014.1
20260507173819 46 254 3.0 6.0 0.00 0.00 0.00 53 1014.0
20260507173336 46 240 3.0 6.0 0.00 0.00 0.00 52 1014.2
20260507172828 47 266 3.0 4.0 0.00 0.00 0.00 52 1014.2
20260507172325 47 284 3.0 4.0 0.00 0.00 0.00 53 1014.3
20260507171839 46 303 3.0 6.0 0.00 0.00 0.00 53 1014.4
20260507171331 46 288 4.0 7.0 0.00 0.00 0.00 53 1014.6
20260507170820 47 274 4.0 7.0 0.00 0.00 0.00 52 1014.8
20260507170336 46 272 4.0 8.0 0.00 0.00 0.00 55 1014.9
20260507165827 46 272 4.0 8.0 0.00 0.00 0.00 56 1014.8
20260507165319 46 273 4.0 8.0 0.00 0.00 0.00 56 1015.0
20260507164853 46 273 5.0 8.0 0.00 0.00 0.00 56 1015.0
20260507164318 46 253 4.0 8.0 0.00 0.00 0.00 56 1015.0
20260507163815 46 268 5.0 8.0 0.00 0.00 0.00 56 1015.0
20260507163330 46 283 5.0 8.0 0.00 0.00 0.00 57 1014.9
20260507162844 46 272 4.0 8.0 0.00 0.00 0.00 57 1015.0
20260507162347 45 288 4.0 8.0 0.00 0.00 0.00 57 1015.1
20260507161840 45 258 5.0 8.0 0.00 0.00 0.00 56 1015.1
20260507161352 46 247 5.0 9.0 0.00 0.00 0.00 56 1015.2
20260507160831 46 261 5.0 9.0 0.00 0.00 0.00 57 1015.3
20260507160328 46 242 3.0 8.0 0.00 0.00 0.00 59 1015.3
20260507155821 46 294 3.0 8.0 0.00 0.00 0.00 58 1015.3
20260507155337 46 248 4.0 8.0 0.00 0.00 0.00 59 1015.3
20260507154828 45 262 3.0 8.0 0.00 0.00 0.00 59 1015.2
20260507154325 45 244 5.0 9.0 0.00 0.00 0.00 58 1015.3
20260507153900 45 269 5.0 9.0 0.00 0.00 0.00 57 1015.3
20260507153327 45 245 4.0 8.0 0.00 0.00 0.00 58 1015.2
20260507152852 45 265 4.0 8.0 0.00 0.00 0.00 58 1015.3
20260507152315 45 287 3.0 7.0 0.00 0.00 0.00 58 1015.3
20260507151831 45 259 4.0 8.0 0.00 0.00 0.00 58 1015.3
20260507151322 45 309 4.0 8.0 0.00 0.00 0.00 59 1015.2
20260507150830 45 269 4.0 7.0 0.00 0.00 0.00 59 1015.3
20260507150337 45 277 3.0 8.0 0.00 0.00 0.00 59 1015.3
20260507145832 45 284 4.0 8.0 0.00 0.00 0.00 59 1015.2
20260507145328 45 259 4.0 9.0 0.00 0.00 0.00 61 1015.3
20260507144825 45 300 4.0 9.0 0.00 0.00 0.00 61 1015.2
20260507144443 44 251 4.0 8.0 0.00 0.00 0.00 62 1015.2
20260507143817 44 290 4.0 9.0 0.00 0.00 0.00 60 1015.2
20260507143314 44 276 5.0 9.0 0.00 0.00 0.00 61 1015.3
20260507142831 44 248 4.0 8.0 0.00 0.00 0.00 62 1015.3
20260507142323 44 260 5.0 8.0 0.00 0.00 0.00 62 1015.2
20260507141836 44 316 4.0 8.0 0.00 0.00 0.00 63 1015.2
20260507141328 44 282 5.0 8.0 0.00 0.00 0.00 63 1015.2
20260507140821 44 306 4.0 8.0 0.00 0.00 0.00 63 1015.2
20260507140334 44 289 3.0 8.0 0.00 0.00 0.00 63 1015.2
20260507135849 43 281 4.0 8.0 0.00 0.00 0.00 63 1015.2
20260507135322 43 295 3.0 6.0 0.00 0.00 0.00 62 1015.1
20260507134840 43 280 3.0 6.0 0.00 0.00 0.00 63 1015.1
20260507134327 43 325 3.0 5.0 0.00 0.00 0.00 63 1015.1
20260507133840 43 306 2.0 5.0 0.00 0.00 0.00 63 1015.1
20260507133335 43 313 2.0 5.0 0.00 0.00 0.00 63 1015.2
20260507132820 43 296 3.0 5.0 0.00 0.00 0.00 63 1015.3
20260507132333 43 270 3.0 6.0 0.00 0.00 0.00 64 1015.2
20260507131829 43 281 4.0 5.0 0.00 0.00 0.00 64 1015.1
20260507131323 43 304 3.0 6.0 0.00 0.00 0.00 64 1015.1
20260507130816 43 282 3.0 7.0 0.00 0.00 0.00 64 1015.1
20260507130329 42 304 3.0 7.0 0.00 0.00 0.00 63 1014.9
20260507125822 42 298 3.0 6.0 0.00 0.00 0.00 62 1014.9
20260507125317 42 288 3.0 6.0 0.00 0.00 0.00 62 1014.7
20260507124814 42 305 4.0 6.0 0.00 0.00 0.00 62 1014.6
20260507124324 42 287 3.0 5.0 0.00 0.00 0.00 62 1014.6
20260507123819 42 300 2.0 5.0 0.00 0.00 0.00 62 1014.6
20260507123333 42 301 3.0 5.0 0.00 0.00 0.00 61 1014.5
20260507122843 42 288 3.0 5.0 0.00 0.00 0.00 61 1014.5
20260507122330 42 303 3.0 5.0 0.00 0.00 0.00 63 1014.4
20260507121827 41 260 2.0 5.0 0.00 0.00 0.00 64 1014.4
20260507121345 41 295 3.0 5.0 0.00 0.00 0.00 64 1014.4
20260507120838 41 296 2.0 6.0 0.00 0.00 0.00 65 1014.3
20260507120323 41 299 3.0 6.0 0.00 0.00 0.00 66 1014.3
20260507115831 41 283 3.0 5.0 0.00 0.00 0.00 66 1014.3
20260507115324 41 264 3.0 7.0 0.00 0.00 0.00 67 1014.2
20260507114835 41 260 3.0 7.0 0.00 0.00 0.00 67 1014.2
20260507114326 41 316 2.0 8.0 0.00 0.00 0.00 67 1014.2
20260507113822 41 285 3.0 8.0 0.00 0.00 0.00 67 1014.1
20260507113332 41 265 4.0 8.0 0.00 0.00 0.00 67 1014.2
20260507112827 41 281 4.0 8.0 0.00 0.00 0.00 67 1014.2
20260507112323 41 306 4.0 8.0 0.00 0.00 0.00 67 1014.1
20260507111836 41 260 4.0 8.0 0.00 0.00 0.00 67 1014.1
20260507111325 41 257 3.0 8.0 0.00 0.00 0.00 67 1014.1
20260507110836 41 292 5.0 8.0 0.00 0.00 0.00 67 1014.0
20260507110332 41 299 4.0 8.0 0.00 0.00 0.00 67 1013.9
20260507105839 41 273 4.0 8.0 0.00 0.00 0.00 67 1013.8
20260507105325 41 272 2.0 8.0 0.00 0.00 0.00 67 1013.7
20260507104820 41 261 4.0 8.0 0.00 0.00 0.00 67 1013.7
20260507104330 41 281 5.0 8.0 0.00 0.00 0.00 67 1013.8
20260507103815 41 269 4.0 7.0 0.00 0.00 0.00 67 1013.7
20260507103331 41 252 2.0 6.0 0.00 0.00 0.00 67 1013.7
20260507102845 41 273 3.0 4.0 0.00 0.00 0.00 67 1013.6
20260507102348 41 292 1.0 5.0 0.00 0.00 0.00 66 1013.6
20260507101825 41 290 3.0 5.0 0.00 0.00 0.00 66 1013.5
20260507101351 41 286 2.0 4.0 0.00 0.00 0.00 66 1013.4
20260507100834 41 298 2.0 4.0 0.00 0.00 0.00 66 1013.4
20260507100349 41 296 2.0 4.0 0.00 0.00 0.00 65 1013.5
20260507095820 41 298 2.0 4.0 0.00 0.00 0.00 65 1013.5
20260507095317 41 279 2.0 4.0 0.00 0.00 0.00 65 1013.5
20260507094831 41 296 2.0 5.0 0.00 0.00 0.00 64 1013.4
20260507094340 41 299 2.0 5.0 0.00 0.00 0.00 64 1013.5
20260507093824 42 279 3.0 6.0 0.00 0.00 0.00 64 1013.5
20260507093341 42 281 2.0 6.0 0.00 0.00 0.00 64 1013.5
20260507092825 42 292 2.0 4.0 0.00 0.00 0.00 63 1013.4
20260507092330 42 279 2.0 4.0 0.00 0.00 0.00 63 1013.4
20260507091823 42 302 3.0 4.0 0.00 0.00 0.00 63 1013.4
20260507091318 42 281 3.0 4.0 0.00 0.00 0.00 63 1013.5
20260507090834 42 320 3.0 7.0 0.00 0.00 0.00 63 1013.6
20260507090329 42 296 2.0 7.0 0.00 0.00 0.00 63 1013.5
20260507085829 42 296 2.0 5.0 0.00 0.00 0.00 62 1013.5
20260507085324 42 307 1.0 5.0 0.00 0.00 0.00 62 1013.5
20260507084858 42 296 2.0 5.0 0.00 0.00 0.00 62 1013.5
20260507084352 42 303 3.0 5.0 0.00 0.00 0.00 62 1013.7
20260507083825 42 329 2.0 5.0 0.00 0.00 0.00 62 1013.8
20260507083321 42 298 2.0 8.0 0.00 0.00 0.00 62 1013.8
20260507082830 42 327 3.0 8.0 0.00 0.00 0.00 61 1013.8
20260507082325 43 315 3.0 8.0 0.00 0.00 0.00 61 1013.9
20260507081835 43 328 3.0 8.0 0.00 0.00 0.00 61 1013.8
20260507081325 43 335 3.0 7.0 0.00 0.00 0.00 62 1013.8
20260507080818 43 313 4.0 8.0 0.00 0.00 0.00 61 1013.8
20260507080331 43 285 4.0 8.0 0.00 0.00 0.00 63 1013.8
20260507075820 43 304 2.0 5.0 0.00 0.00 0.00 63 1013.9
20260507075332 43 266 2.0 9.0 0.00 0.00 0.00 63 1013.9
20260507074830 43 284 3.0 9.0 0.00 0.00 0.00 62 1013.9
20260507074336 43 285 3.0 8.0 0.00 0.00 0.00 61 1013.9
20260507073817 43 279 3.0 9.0 0.00 0.00 0.00 63 1013.9
20260507073332 44 316 3.0 9.0 0.00 0.00 0.00 63 1014.0
20260507072828 44 315 4.0 8.0 0.00 0.00 0.00 61 1013.9
20260507072343 44 306 3.0 9.0 0.00 0.00 0.00 62 1013.9
20260507071818 44 297 4.0 9.0 0.00 0.00 0.00 61 1013.9
20260507071315 44 302 3.0 8.0 0.00 0.00 0.00 61 1013.9
20260507070847 44 302 3.0 11.0 0.00 0.00 0.00 61 1014.0
20260507070330 44 283 4.0 11.0 0.00 0.00 0.00 62 1014.0
20260507065826 44 313 4.0 9.0 0.00 0.00 0.00 61 1014.0
20260507065318 44 315 4.0 9.0 0.00 0.00 0.00 60 1014.1
20260507064830 44 282 4.0 9.0 0.00 0.00 0.00 60 1014.1
20260507064326 45 308 5.0 9.0 0.00 0.00 0.00 60 1014.2
20260507063819 45 291 4.0 11.0 0.00 0.00 0.00 60 1014.3
20260507063336 45 307 4.0 11.0 0.00 0.00 0.00 60 1014.3
20260507062825 45 286 3.0 10.0 0.00 0.00 0.00 60 1014.3
20260507062339 45 296 4.0 10.0 0.00 0.00 0.00 59 1014.2
20260507061831 45 292 4.0 10.0 0.00 0.00 0.00 59 1014.3
20260507061326 45 310 4.0 10.0 0.00 0.00 0.00 59 1014.3
20260507060840 45 308 5.0 11.0 0.00 0.00 0.00 60 1014.3
20260507060333 45 306 4.0 11.0 0.00 0.00 0.00 59 1014.3
20260507055842 45 275 4.0 11.0 0.00 0.00 0.00 60 1014.3
20260507055356 45 305 5.0 10.0 0.00 0.00 0.00 59 1014.4
20260507054828 45 289 4.0 10.0 0.00 0.00 0.00 59 1014.4
20260507054338 45 280 5.0 12.0 0.00 0.00 0.00 60 1014.4
20260507053842 45 277 6.0 12.0 0.00 0.00 0.00 60 1014.6
20260507053337 45 286 6.0 12.0 0.00 0.00 0.00 59 1014.4
20260507052824 45 314 4.0 11.0 0.00 0.00 0.00 58 1014.5
20260507052318 45 314 5.0 11.0 0.00 0.00 0.00 60 1014.5
20260507051831 46 303 6.0 11.0 0.00 0.00 0.00 59 1014.5
20260507051317 46 300 6.0 11.0 0.00 0.00 0.00 60 1014.5
20260507050832 45 304 6.0 11.0 0.00 0.00 0.00 59 1014.6
20260507050342 45 298 5.0 11.0 0.00 0.00 0.00 59 1014.6
20260507045829 45 298 6.0 10.0 0.00 0.00 0.00 60 1014.6
20260507045315 45 309 5.0 10.0 0.00 0.00 0.00 60 1014.5
20260507044830 45 283 4.0 9.0 0.00 0.00 0.00 62 1014.5
20260507044339 45 329 4.0 10.0 0.00 0.00 0.00 62 1014.6
20260507043828 45 309 4.0 10.0 0.00 0.00 0.00 62 1014.5
20260507043341 45 282 5.0 10.0 0.00 0.00 0.00 61 1014.4
20260507042832 45 295 4.0 8.0 0.00 0.00 0.00 61 1014.4
20260507042329 46 298 4.0 8.0 0.00 0.00 0.00 61 1014.4
20260507041826 46 284 4.0 11.0 0.00 0.00 0.00 62 1014.4
20260507041329 46 281 7.0 11.0 0.00 0.00 0.00 63 1014.4
20260507040840 46 277 5.0 9.0 0.00 0.00 0.00 62 1014.4
20260507040324 46 311 5.0 9.0 0.00 0.00 0.00 63 1014.4
20260507035843 45 270 4.0 12.0 0.00 0.00 0.00 64 1014.4
20260507035315 45 259 5.0 12.0 0.00 0.00 0.00 64 1014.4
20260507034832 45 281 5.0 12.0 0.00 0.00 0.00 64 1014.3
20260507034326 45 263 8.0 12.0 0.00 0.00 0.00 64 1014.3
20260507033318 45 277 7.0 12.0 0.00 0.00 0.00 64 1014.2
20260507032831 45 273 4.0 9.0 0.00 0.00 0.00 64 1014.2
20260507032320 45 282 5.0 9.0 0.00 0.00 0.00 63 1014.1
20260507031832 45 281 4.0 8.0 0.00 0.00 0.00 63 1014.2
20260507031325 45 259 4.0 8.0 0.00 0.00 0.00 62 1014.2